• In Österreich
  • Länderverzeichnis
  • Für 7 Tage
  • Wassertemperatur
  • Satellitenkarten
  • Wetterkarte
  • News
  • Widgets
  • user-avatar
    Anmelden

    Stündliche Wetter Saurimo

    Heute, 19 Juli, Donnerstag

    Zeit Temperatur Niederschläge Wind Luftdruck Luftfeuchtigkeit
    00:00 +16°C° 0 mm 2 m/S 673 mmHg 44%
    01:00 +15°C° 0 mm 2 m/S 673 mmHg 45%
    02:00 +15°C° 0 mm 2 m/S 672 mmHg 48%
    03:00 +14°C° 0 mm 2 m/S 672 mmHg 50%
    04:00 +14°C° 0 mm 2 m/S 672 mmHg 53%
    05:00 +14°C° 0 mm 2 m/S 672 mmHg 52%
    06:00 +14°C° 0 mm 3 m/S 673 mmHg 52%
    07:00 +15°C° 0 mm 4 m/S 673 mmHg 51%
    08:00 +18°C° 0 mm 4 m/S 674 mmHg 45%
    09:00 +21°C° 0 mm 4 m/S 674 mmHg 39%
    10:00 +25°C° 0 mm 4 m/S 675 mmHg 32%
    11:00 +27°C° 0 mm 3 m/S 674 mmHg 28%
    12:00 +29°C° 0 mm 3 m/S 674 mmHg 24%
    13:00 +31°C° 0 mm 3 m/S 674 mmHg 20%
    14:00 +31°C° 0 mm 2 m/S 673 mmHg 20%
    15:00 +31°C° 0 mm 2 m/S 673 mmHg 19%
    16:00 +31°C° 0 mm 2 m/S 672 mmHg 18%
    17:00 +28°C° 0 mm 2 m/S 672 mmHg 22%
    18:00 +25°C° 0 mm 2 m/S 671 mmHg 27%
    19:00 +23°C° 0 mm 2 m/S 671 mmHg 31%
    20:00 +21°C° 0 mm 2 m/S 672 mmHg 32%
    21:00 +20°C° 0 mm 2 m/S 672 mmHg 34%
    22:00 +19°C° 0 mm 2 m/S 672 mmHg 36%
    23:00 +19°C° 0 mm 2 m/S 672 mmHg 37%

    Morgen, 20 Juli, Freitag

    Zeit Temperatur Niederschläge Wind Luftdruck Luftfeuchtigkeit
    00:00 +18°C° 0 mm 2 m/S 672 mmHg 38%
    01:00 +18°C° 0 mm 2 m/S 672 mmHg 38%
    02:00 +17°C° 0 mm 3 m/S 672 mmHg 39%
    03:00 +17°C° 0 mm 3 m/S 671 mmHg 40%
    04:00 +16°C° 0 mm 3 m/S 671 mmHg 41%
    05:00 +17°C° 0 mm 3 m/S 672 mmHg 41%
    06:00 +17°C° 0 mm 4 m/S 672 mmHg 42%
    07:00 +17°C° 0 mm 4 m/S 672 mmHg 42%
    08:00 +20°C° 0 mm 4 m/S 673 mmHg 38%
    09:00 +23°C° 0 mm 4 m/S 674 mmHg 33%
    10:00 +27°C° 0 mm 4 m/S 674 mmHg 28%
    11:00 +29°C° 0 mm 3 m/S 674 mmHg 25%
    12:00 +31°C° 0 mm 3 m/S 674 mmHg 21%
    13:00 +32°C° 0 mm 2 m/S 673 mmHg 18%
    14:00 +32°C° 0 mm 2 m/S 672 mmHg 17%
    15:00 +32°C° 0 mm 2 m/S 672 mmHg 17%
    16:00 +32°C° 0 mm 1 m/S 671 mmHg 17%
    17:00 +29°C° 0 mm 1 m/S 671 mmHg 21%
    18:00 +27°C° 0 mm 2 m/S 671 mmHg 24%
    19:00 +24°C° 0 mm 2 m/S 671 mmHg 28%
    20:00 +23°C° 0 mm 2 m/S 671 mmHg 29%
    21:00 +21°C° 0 mm 2 m/S 672 mmHg 31%
    22:00 +20°C° 0 mm 2 m/S 672 mmHg 33%
    23:00 +20°C° 0 mm 2 m/S 672 mmHg 33%

    übermorgen, 21 Juli, Samstag

    Zeit Temperatur Niederschläge Wind Luftdruck Luftfeuchtigkeit
    00:00 +19°C° 0 mm 2 m/S 672 mmHg 34%
    01:00 +19°C° 0 mm 2 m/S 672 mmHg 35%
    02:00 +18°C° 0 mm 3 m/S 671 mmHg 36%
    03:00 +18°C° 0 mm 3 m/S 671 mmHg 37%
    04:00 +17°C° 0 mm 3 m/S 671 mmHg 38%
    05:00 +18°C° 0 mm 3 m/S 671 mmHg 39%
    06:00 +18°C° 0 mm 3 m/S 672 mmHg 39%
    07:00 +18°C° 0 mm 3 m/S 672 mmHg 40%
    08:00 +21°C° 0 mm 3 m/S 673 mmHg 35%
    09:00 +25°C° 0 mm 3 m/S 674 mmHg 29%
    10:00 +28°C° 0 mm 3 m/S 674 mmHg 24%
    11:00 +30°C° 0 mm 3 m/S 674 mmHg 21%
    12:00 +34°C° 0 mm 2 m/S 674 mmHg 18%
    13:00 +36°C° 0 mm 2 m/S 674 mmHg 15%
    14:00 +35°C° 0 mm 2 m/S 673 mmHg 15%
    15:00 +34°C° 0 mm 1 m/S 672 mmHg 14%
    16:00 +33°C° 0 mm 1 m/S 671 mmHg 14%
    17:00 +31°C° 0 mm 1 m/S 672 mmHg 17%
    18:00 +28°C° 0 mm 1 m/S 672 mmHg 21%
    19:00 +25°C° 0 mm 2 m/S 672 mmHg 24%
    20:00 +24°C° 0 mm 2 m/S 672 mmHg 26%
    21:00 +23°C° 0 mm 2 m/S 672 mmHg 27%
    22:00 +21°C° 0 mm 2 m/S 673 mmHg 29%
    23:00 +21°C° 0 mm 2 m/S 673 mmHg 30%

    22 Juli, Sonntag

    Zeit Temperatur Niederschläge Wind Luftdruck Luftfeuchtigkeit
    00:00 +20°C° 0 mm 2 m/S 672 mmHg 31%
    01:00 +20°C° 0 mm 3 m/S 672 mmHg 31%
    02:00 +19°C° 0 mm 3 m/S 672 mmHg 33%
    03:00 +19°C° 0 mm 3 m/S 671 mmHg 34%
    04:00 +18°C° 0 mm 3 m/S 671 mmHg 35%
    05:00 +19°C° 0 mm 3 m/S 672 mmHg 35%
    06:00 +19°C° 0 mm 3 m/S 672 mmHg 36%
    07:00 +19°C° 0 mm 4 m/S 673 mmHg 36%
    08:00 +22°C° 0 mm 4 m/S 673 mmHg 32%
    09:00 +26°C° 0 mm 4 m/S 674 mmHg 27%
    10:00 +29°C° 0 mm 4 m/S 675 mmHg 23%
    11:00 +31°C° 0 mm 3 m/S 674 mmHg 20%
    12:00 +34°C° 0 mm 3 m/S 674 mmHg 17%
    13:00 +36°C° 0 mm 2 m/S 673 mmHg 14%
    14:00 +35°C° 0 mm 2 m/S 673 mmHg 14%
    15:00 +35°C° 0 mm 2 m/S 672 mmHg 14%
    16:00 +35°C° 0 mm 2 m/S 672 mmHg 14%
    17:00 +31°C° 0 mm 2 m/S 672 mmHg 17%
    18:00 +28°C° 0 mm 2 m/S 672 mmHg 20%
    19:00 +26°C° 0 mm 2 m/S 672 mmHg 23%
    20:00 +25°C° 0 mm 2 m/S 672 mmHg 25%
    21:00 +24°C° 0 mm 2 m/S 673 mmHg 27%
    22:00 +23°C° 0 mm 2 m/S 673 mmHg 28%
    23:00 +21°C° 0 mm 2 m/S 673 mmHg 29%

    23 Juli, Montag

    Zeit Temperatur Niederschläge Wind Luftdruck Luftfeuchtigkeit
    00:00 +21°C° 0 mm 3 m/S 672 mmHg 30%
    01:00 +21°C° 0 mm 3 m/S 672 mmHg 30%
    02:00 +20°C° 0 mm 3 m/S 672 mmHg 32%
    03:00 +20°C° 0 mm 3 m/S 672 mmHg 34%
    04:00 +19°C° 0 mm 3 m/S 672 mmHg 36%
    05:00 +20°C° 0 mm 3 m/S 672 mmHg 36%
    06:00 +20°C° 0 mm 4 m/S 673 mmHg 37%
    07:00 +20°C° 0 mm 4 m/S 673 mmHg 38%
    08:00 +23°C° 0 mm 4 m/S 674 mmHg 33%
    09:00 +27°C° 0 mm 4 m/S 674 mmHg 29%
    10:00 +29°C° 0 mm 4 m/S 675 mmHg 24%
    11:00 +32°C° 0 mm 4 m/S 674 mmHg 21%
    12:00 +34°C° 0 mm 3 m/S 674 mmHg 19%
    13:00 +35°C° 0 mm 3 m/S 673 mmHg 16%
    14:00 +35°C° 0 mm 3 m/S 672 mmHg 16%
    15:00 +35°C° 0 mm 3 m/S 672 mmHg 16%
    16:00 +34°C° 0 mm 3 m/S 671 mmHg 16%
    17:00 +31°C° 0 mm 2 m/S 671 mmHg 19%
    18:00 +28°C° 0 mm 2 m/S 672 mmHg 23%
    19:00 +25°C° 0 mm 2 m/S 672 mmHg 26%
    20:00 +25°C° 0 mm 2 m/S 672 mmHg 28%
    21:00 +24°C° 0 mm 2 m/S 672 mmHg 29%
    22:00 +23°C° 0 mm 2 m/S 672 mmHg 31%
    23:00 +22°C° 0 mm 3 m/S 672 mmHg 31%

    24 Juli, Dienstag

    Zeit Temperatur Niederschläge Wind Luftdruck Luftfeuchtigkeit
    00:00 +21°C° 0 mm 3 m/S 672 mmHg 31%
    01:00 +21°C° 0 mm 3 m/S 672 mmHg 32%
    02:00 +20°C° 0 mm 3 m/S 672 mmHg 34%
    03:00 +19°C° 0 mm 3 m/S 672 mmHg 36%
    04:00 +18°C° 0 mm 3 m/S 671 mmHg 38%
    05:00 +19°C° 0 mm 3 m/S 672 mmHg 38%
    06:00 +19°C° 0 mm 3 m/S 672 mmHg 39%
    07:00 +19°C° 0 mm 4 m/S 673 mmHg 39%
    08:00 +22°C° 0 mm 4 m/S 673 mmHg 35%
    09:00 +26°C° 0 mm 4 m/S 674 mmHg 30%
    10:00 +29°C° 0 mm 4 m/S 674 mmHg 26%
    11:00 +30°C° 0 mm 4 m/S 674 mmHg 23%
    12:00 +33°C° 0 mm 3 m/S 673 mmHg 19%
    13:00 +35°C° 0 mm 2 m/S 673 mmHg 16%
    14:00 +35°C° 0 mm 2 m/S 672 mmHg 15%
    15:00 +34°C° 0 mm 2 m/S 672 mmHg 15%
    16:00 +34°C° 0 mm 2 m/S 671 mmHg 15%
    17:00 +30°C° 0 mm 2 m/S 671 mmHg 18%
    18:00 +28°C° 0 mm 2 m/S 671 mmHg 21%
    19:00 +25°C° 0 mm 2 m/S 671 mmHg 25%
    20:00 +24°C° 0 mm 2 m/S 672 mmHg 27%
    21:00 +23°C° 0 mm 2 m/S 672 mmHg 29%
    22:00 +21°C° 0 mm 2 m/S 672 mmHg 31%
    23:00 +20°C° 0 mm 2 m/S 672 mmHg 32%
    Mehr zeigen